[[{"header":{"parameterUnit":"m.s-1","parameterCategory":1,"la1":30.2991,"la2":30.254,"lo1":-89.0895,"lo2":-89.0444,"dy":0.0017,"dx":0.0017,"nx":28,"ny":28,"refTime":"2025-11-09T09:00:00:Z","depth":0,"parameterNumber":2,"parameterNumberName":"U-component_of_WINDS"},"data":[0,0,0,0,0,0,0,0,0,0,0,0,0,0,0,0,0,0,0,0,0,0,0,0,0,0,0,0,0,0,0,0,0,0,0,0,0,0,0,0,0,0,0,0,0,0,0,0,0,0,0,0,0,0,0,0,0,0,-3.3645,-3.3646,0,-3.3735,-3.3736,-3.3737,-3.3656,-3.3653,-3.3649,-3.3646,-3.3737,-3.3742,-3.3748,0,0,0,0,0,0,0,0,0,0,0,0,0,-3.3399,-3.3404,-3.3645,-3.3646,-3.3648,-3.3735,-3.3736,-3.3738,-3.3656,-3.3652,-3.3648,-3.3645,-3.3735,-3.3742,-3.3748,0,0,0,0,0,0,0,0,0,0,0,0,0,-3.35,-3.3406,-3.3645,-3.3618,-3.3616,-3.3735,-3.3737,-3.3738,-3.3657,-3.3652,-3.3647,-3.3643,-3.3733,-3.3741,-3.3749,-3.3899,0,0,-3.3774,-3.3778,0,0,0,0,0,0,0,0,-3.3494,-3.3509,-3.3621,-3.362,-3.3618,-3.3679,-3.3683,-3.3792,-3.3659,-3.3642,-3.3646,-3.364,-3.3722,-3.3731,-3.3758,-3.3904,-3.3907,-3.3775,-3.378,-3.3784,-3.3786,0,0,0,0,0,0,0,-3.3487,-3.3504,-3.3681,-3.3622,-3.3621,-3.36,-3.3608,-3.3703,-3.3708,-3.3643,-3.3637,-3.3649,-3.372,-3.3751,-3.376,-3.3909,-3.3775,-3.3782,-3.3787,-3.379,-3.4179,-3.4184,0,0,0,0,0,0,-3.3483,-3.3499,-3.3678,-3.3684,-3.3543,-3.3608,-3.3618,-3.3665,-3.3707,-3.3709,-3.3653,-3.3645,-3.3739,-3.375,-3.3763,-3.3939,-3.3783,-3.3791,-3.3796,-3.4173,-3.418,-3.4186,0,0,0,0,0,0,-3.3478,-3.35,-3.3674,-3.359,-3.361,-3.3618,-3.3671,-3.3669,-3.3699,-3.3715,-3.3715,-3.3684,-3.3735,-3.3751,-3.3865,-3.3942,-3.3795,-3.3802,-3.4167,-3.4175,-3.4183,-3.4296,0,0,0,0,0,0,-3.3472,-3.3499,-3.3557,-3.3592,-3.3615,-3.3777,-3.3676,-3.3674,-3.3714,-3.3704,-3.3744,-3.3745,-3.3733,-3.3854,-3.3874,-3.395,-3.3809,-3.416,-3.4171,-3.418,-3.4285,-3.4307,-3.4325,0,0,0,0,0,-3.3463,-3.3586,-3.3561,-3.3583,-3.3688,-3.3782,-3.3795,-3.3779,-3.3721,-3.3778,-3.3788,-3.3744,-3.393,-3.3866,-3.3888,-3.3968,-3.4155,-3.4168,-3.4179,-3.4276,-3.4302,-3.4325,0,0,0,0,0,0,-3.356,-3.359,-3.3562,-3.37,-3.3739,-3.3768,-3.384,-3.3807,-3.3863,-3.3851,-3.3828,-3.3837,-3.3958,-3.3974,-3.3902,-3.4114,-3.4033,-3.405,-3.4099,-3.4124,-3.4144,-3.4137,-3.3816,0,0,0,0,0,-3.3597,-3.3671,-3.3693,-3.3812,-3.3833,-3.3834,-3.3874,-3.3857,-3.3897,-3.3913,-3.3931,-3.397,-3.4036,-3.4081,-3.4144,-3.4287,-3.4293,-3.4353,-3.4373,-3.4389,-3.4404,-3.4478,-3.4504,-3.4225,-3.4225,-3.4225,0,0,-3.3675,-3.37,-3.3749,-3.3832,-3.386,-3.3936,-3.3848,-3.3933,-3.3988,-3.3925,-3.4034,-3.4049,-3.409,-3.4219,-3.4277,-3.4237,-3.4482,-3.4404,-3.4417,-3.4423,-3.4493,-3.452,-3.4543,-3.4233,-3.4232,-3.4231,0,0,-3.3855,-3.3883,-3.3984,-3.4014,-3.4058,-3.4057,-3.4081,-3.4115,-3.4122,-3.4231,-3.4184,-3.4249,-3.4366,-3.4397,-3.4428,-3.4618,-3.4579,-3.4639,-3.4743,-3.4815,-3.4837,-3.4857,-3.4922,-3.4947,-3.4654,-3.4654,-3.4654,0,-3.3946,-3.406,-3.404,-3.4128,-3.4165,-3.4111,-3.4212,-3.4242,-3.4304,-3.433,-3.4284,-3.4428,-3.4452,-3.4586,-3.4632,-3.466,-3.4685,-3.4634,-3.4836,-3.4855,-3.4873,-3.4935,-3.496,-3.4661,-3.466,-3.4659,-3.4659,0,-3.4169,-3.4248,-3.4324,-3.4385,-3.4431,-3.4525,-3.4518,-3.4566,-3.4545,-3.4549,-3.4659,-3.4686,-3.4752,-3.4783,-3.4764,-3.4914,-3.4887,-3.484,-3.4757,-3.4907,-3.4965,-3.4989,-3.4671,-3.4668,-3.4666,-3.4664,0,0,-3.4414,-3.4461,-3.4489,-3.4515,-3.4559,-3.4619,-3.4709,-3.4774,-3.4815,-3.4859,-3.4933,-3.5032,-3.4987,-3.5022,-3.5006,-3.507,-3.5216,-3.5014,-3.5014,-3.5049,-3.538,-3.5416,-3.5444,-3.519,-3.5195,-3.5198,-3.5376,0,-3.4594,-3.4752,-3.4736,-3.4886,-3.4957,-3.4906,-3.4985,-3.5019,-3.5024,-3.5085,-3.509,-3.5159,-3.5096,-3.5116,-3.5178,-3.5185,-3.5282,-3.5172,-3.5257,-3.5261,-3.5248,-3.5475,-3.5513,-3.5679,-3.5399,-3.5403,-3.5406,0,-3.4827,-3.4878,-3.5036,-3.5066,-3.5095,-3.5166,-3.5223,-3.5282,-3.5319,-3.5318,-3.5357,-3.5328,-3.5417,-3.5333,-3.5455,-3.538,-3.5414,-3.5423,-3.5429,-3.5435,-3.5342,-3.5486,-3.5732,-3.5757,-3.5442,-3.5439,-3.5436,0,-3.4987,-3.5096,-3.5204,-3.5228,-3.5267,-3.5317,-3.5335,-3.5367,-3.5407,-3.5456,-3.548,-3.554,-3.5572,-3.5617,-3.5605,-3.5545,-3.5728,-3.5644,-3.5728,-3.5729,-3.5769,-3.5766,-3.6023,-3.5793,-3.5792,-3.5792,-3.5791,0,-3.519,-3.5288,-3.5276,-3.5343,-3.5449,-3.5429,-3.5535,-3.5547,-3.5575,-3.5641,-3.5601,-3.5663,-3.5643,-3.5705,-3.5695,-3.5796,-3.5811,-3.5811,-3.5808,-3.5815,-3.5814,-3.5836,-3.5823,-3.5798,-3.5797,-3.5796,-3.5794,0,-3.5388,-3.5385,-3.5498,-3.5525,-3.5533,-3.5611,-3.5633,-3.5694,-3.5695,-3.5779,-3.5798,-3.58,-3.5869,-3.5861,-3.594,-3.5933,-3.6057,-3.604,-3.6045,-3.6041,-3.6125,-3.6117,-3.6403,-3.6439,-3.6187,-3.6189,-3.6192,0,-3.5518,-3.5591,-3.5626,-3.5667,-3.5689,-3.5756,-3.5796,-3.5777,-3.582,-3.5866,-3.5921,-3.5987,-3.6039,-3.6152,-3.616,-3.6219,-3.6202,-3.6298,-3.621,-3.6214,-3.6201,-3.6196,-3.6202,-3.6315,-3.6318,-3.632,-3.6322,0,-3.5747,-3.5741,-3.58,-3.5858,-3.5906,-3.595,-3.5991,-3.6027,-3.6012,-3.6061,-3.6132,-3.6172,-3.6251,-3.6316,-3.6372,-3.6388,-3.6353,-3.635,-3.6372,-3.6379,-3.6378,-3.6378,-3.6091,-3.6343,-3.6341,-3.6339,-3.6338,-3.6338,-3.5913,-3.5976,-3.6009,-3.6075,-3.6103,-3.6141,-3.62,-3.6208,-3.6266,-3.6329,-3.6315,-3.6394,-3.6426,-3.6497,-3.6519,-3.658,-3.6544,-3.6577,-3.6585,-3.6593,-3.6602,-3.637,-3.659,-3.6589,-3.6589,-3.6588,-3.6588,0,-3.6139,-3.6158,-3.6219,-3.6276,-3.6327,-3.6289,-3.6331,-3.6377,-3.6447,-3.6481,-3.6532,-3.6612,-3.6674,-3.6686,-3.6745,-3.6791,-3.6776,-3.6807,-3.6803,-3.6807,-3.6632,-3.6606,-3.6818,-3.6818,-3.6818,-3.6818,-3.6818,-3.6818,-3.6263,-3.6365,-3.6363,-3.6478,-3.6495,-3.6573,-3.66,-3.6634,-3.666,-3.6752,-3.6803,-3.6811,-3.6835,-3.6895,-3.695,-3.6951,-3.6974,-3.7012,-3.7007,-3.6843,-3.682,-3.6798,-3.6773,-3.7017,-3.7018,-3.7177,-3.7178,-3.7179]},{"header":{"parameterUnit":"m.s-1","parameterCategory":1,"la1":30.2991,"la2":30.254,"lo1":-89.0895,"lo2":-89.0444,"dy":0.0017,"dx":0.0017,"nx":28,"ny":28,"refTime":"2025-11-09T09:00:00:Z","depth":0,"parameterNumber":3,"parameterNumberName":"V-component_of_WINDS"},"data":[0,0,0,0,0,0,0,0,0,0,0,0,0,0,0,0,0,0,0,0,0,0,0,0,0,0,0,0,0,0,0,0,0,0,0,0,0,0,0,0,0,0,0,0,0,0,0,0,0,0,0,0,0,0,0,0,0,0,-6.2051,-6.2052,0,-6.2178,-6.218,-6.2181,-6.209,-6.2086,-6.2082,-6.2078,-6.2203,-6.221,-6.2217,0,0,0,0,0,0,0,0,0,0,0,0,0,-6.1721,-6.1728,-6.2051,-6.2052,-6.2054,-6.2178,-6.218,-6.2181,-6.2091,-6.2086,-6.2081,-6.2077,-6.22,-6.2209,-6.2217,0,0,0,0,0,0,0,0,0,0,0,0,0,-6.1858,-6.173,-6.205,-6.2024,-6.2023,-6.2178,-6.218,-6.2182,-6.2092,-6.2086,-6.208,-6.2074,-6.2198,-6.2208,-6.2218,-6.2404,0,0,-6.2251,-6.2255,0,0,0,0,0,0,0,0,-6.185,-6.187,-6.2026,-6.2026,-6.2025,-6.2112,-6.2109,-6.2256,-6.2094,-6.2066,-6.2078,-6.2071,-6.2177,-6.2189,-6.2226,-6.241,-6.2416,-6.2252,-6.2258,-6.2263,-6.2266,0,0,0,0,0,0,0,-6.1841,-6.1864,-6.2101,-6.2029,-6.2028,-6.2003,-6.2016,-6.2136,-6.2153,-6.2067,-6.2061,-6.2078,-6.2176,-6.2216,-6.2228,-6.2417,-6.2251,-6.2261,-6.2267,-6.2271,-6.2757,-6.2763,0,0,0,0,0,0,-6.1835,-6.1857,-6.2097,-6.2105,-6.1921,-6.2014,-6.2028,-6.209,-6.2152,-6.2156,-6.2083,-6.2073,-6.2201,-6.2216,-6.2232,-6.2452,-6.2263,-6.2272,-6.2279,-6.275,-6.2758,-6.2765,0,0,0,0,0,0,-6.1828,-6.1857,-6.2092,-6.1979,-6.2007,-6.2026,-6.2096,-6.2096,-6.2136,-6.2164,-6.2165,-6.2122,-6.2197,-6.2217,-6.2362,-6.2455,-6.2277,-6.2287,-6.2743,-6.2753,-6.2762,-6.2894,0,0,0,0,0,0,-6.1819,-6.1855,-6.1928,-6.1982,-6.2014,-6.2222,-6.2102,-6.2103,-6.2156,-6.2144,-6.22,-6.2204,-6.2194,-6.2347,-6.2373,-6.2466,-6.2295,-6.2734,-6.2747,-6.2759,-6.2882,-6.2908,-6.293,0,0,0,0,0,-6.1808,-6.196,-6.1933,-6.1962,-6.2106,-6.2228,-6.2246,-6.2233,-6.2164,-6.2235,-6.2252,-6.2202,-6.2441,-6.2362,-6.2391,-6.2489,-6.2728,-6.2744,-6.2758,-6.2871,-6.2903,-6.2929,0,0,0,0,0,0,-6.1915,-6.1966,-6.1937,-6.2111,-6.2166,-6.2212,-6.2303,-6.2267,-6.2341,-6.2327,-6.2305,-6.2319,-6.247,-6.2494,-6.2405,-6.267,-6.2573,-6.2594,-6.265,-6.268,-6.2703,-6.2694,-6.2304,0,0,0,0,0,-6.196,-6.2057,-6.2096,-6.2246,-6.2275,-6.2285,-6.2337,-6.2322,-6.2377,-6.24,-6.2427,-6.2481,-6.2567,-6.2625,-6.2706,-6.2885,-6.2894,-6.2966,-6.299,-6.301,-6.3028,-6.3121,-6.3152,-6.2814,-6.2814,-6.2813,0,0,-6.2052,-6.2092,-6.2154,-6.2268,-6.2309,-6.2408,-6.2305,-6.2414,-6.2486,-6.2415,-6.2554,-6.2576,-6.2634,-6.2796,-6.2868,-6.282,-6.3123,-6.3028,-6.3044,-6.3051,-6.3139,-6.3171,-6.32,-6.2824,-6.2822,-6.282,0,0,-6.227,-6.2311,-6.244,-6.2483,-6.2546,-6.2551,-6.2582,-6.2634,-6.2646,-6.2785,-6.2733,-6.2817,-6.2968,-6.3011,-6.3052,-6.3284,-6.3239,-6.3311,-6.3435,-6.3526,-6.3553,-6.3577,-6.3657,-6.3686,-6.3329,-6.3329,-6.333,0,-6.2376,-6.2525,-6.251,-6.2623,-6.2673,-6.2615,-6.2743,-6.2785,-6.2871,-6.2906,-6.2851,-6.3037,-6.3072,-6.3242,-6.3298,-6.3335,-6.3367,-6.3304,-6.3551,-6.3574,-6.3596,-6.3672,-6.3703,-6.3338,-6.3337,-6.3336,-6.3335,0,-6.2651,-6.2754,-6.285,-6.2936,-6.2997,-6.3117,-6.3117,-6.318,-6.3159,-6.3169,-6.3309,-6.3349,-6.3437,-6.3476,-6.3457,-6.3642,-6.361,-6.3554,-6.3456,-6.3637,-6.3708,-6.3737,-6.3349,-6.3346,-6.3344,-6.3342,0,0,-6.2941,-6.3016,-6.3051,-6.3088,-6.3153,-6.3232,-6.3347,-6.3435,-6.3488,-6.3549,-6.3643,-6.3771,-6.3719,-6.3766,-6.375,-6.383,-6.4008,-6.3764,-6.3764,-6.3806,-6.4212,-6.4253,-6.4288,-6.398,-6.3985,-6.399,-6.4207,0,-6.3161,-6.3365,-6.3354,-6.3544,-6.3638,-6.3583,-6.3683,-6.3732,-6.3744,-6.3823,-6.3835,-6.3926,-6.3851,-6.3879,-6.3956,-6.3971,-6.4089,-6.3955,-6.4064,-6.4069,-6.4051,-6.4325,-6.437,-6.4573,-6.4235,-6.424,-6.4243,0,-6.3445,-6.3516,-6.3717,-6.3765,-6.3804,-6.3895,-6.3972,-6.405,-6.4103,-6.4105,-6.4158,-6.4128,-6.4242,-6.4141,-6.4296,-6.4205,-6.4248,-6.4262,-6.427,-6.4278,-6.4166,-6.434,-6.4638,-6.4668,-6.4287,-6.4284,-6.428,0,-6.3634,-6.378,-6.3918,-6.3952,-6.4013,-6.4077,-6.4105,-6.4152,-6.4205,-6.4271,-6.4304,-6.4383,-6.4426,-6.4486,-6.4478,-6.4406,-6.4634,-6.4534,-6.4637,-6.4637,-6.4687,-6.4684,-6.4994,-6.4718,-6.4718,-6.4717,-6.4716,0,-6.388,-6.4004,-6.4004,-6.4089,-6.4225,-6.4209,-6.4343,-6.4363,-6.4406,-6.4491,-6.4448,-6.4529,-6.4513,-6.4593,-6.4587,-6.4714,-6.4734,-6.4737,-6.4734,-6.4741,-6.474,-6.4768,-6.4753,-6.4725,-6.4723,-6.4722,-6.472,0,-6.4113,-6.4119,-6.4265,-6.4311,-6.4325,-6.4423,-6.446,-6.4539,-6.4547,-6.4655,-6.468,-6.4691,-6.4783,-6.478,-6.4884,-6.4879,-6.5035,-6.5016,-6.5018,-6.5014,-6.5116,-6.5106,-6.5455,-6.5499,-6.5196,-6.5199,-6.5201,0,-6.4269,-6.4364,-6.4419,-6.4474,-6.4507,-6.4596,-6.4649,-6.4636,-6.4693,-6.4759,-6.4829,-6.4917,-6.4986,-6.5134,-6.515,-6.5228,-6.5209,-6.5326,-6.5221,-6.5224,-6.5209,-6.5203,-6.5211,-6.5347,-6.535,-6.5353,-6.5355,0,-6.4545,-6.4542,-6.4622,-6.4702,-6.4767,-6.4829,-6.4886,-6.4933,-6.4926,-6.4991,-6.5085,-6.5139,-6.5244,-6.5331,-6.5405,-6.543,-6.5391,-6.5388,-6.5416,-6.5423,-6.542,-6.5421,-6.5073,-6.538,-6.5378,-6.5376,-6.5374,-6.5373,-6.4743,-6.4823,-6.4875,-6.4964,-6.5005,-6.5059,-6.5135,-6.5152,-6.5231,-6.5317,-6.5304,-6.5408,-6.5455,-6.5552,-6.5584,-6.5663,-6.5621,-6.5662,-6.5672,-6.5682,-6.5693,-6.5408,-6.5677,-6.5676,-6.5675,-6.5675,-6.5674,0,-6.5014,-6.5044,-6.5127,-6.5208,-6.5277,-6.5236,-6.5296,-6.5356,-6.5449,-6.5498,-6.5567,-6.5673,-6.5756,-6.5779,-6.5858,-6.5917,-6.5901,-6.5938,-6.5933,-6.5939,-6.5726,-6.5694,-6.595,-6.595,-6.595,-6.595,-6.595,-6.595,-6.5164,-6.5297,-6.53,-6.5452,-6.548,-6.5583,-6.5621,-6.5669,-6.5707,-6.5829,-6.5898,-6.5913,-6.595,-6.6031,-6.6105,-6.6109,-6.6139,-6.6184,-6.6181,-6.5982,-6.5954,-6.5928,-6.5897,-6.6191,-6.6191,-6.6386,-6.6388,-6.6389]}]]